When you browse on this site, cookies collect data to enhance your experience and personalize the content and advertising you see.
Visit our Privacy Policy to learn more. By continuing to use the site, you agree to this use of cookies and data.
  • En España
  • Lista de países
  • Para 7 días
  • Temperatura del agua
  • El tiempo en el mapa
  • Informadores
  • user-avatar
    Iniciar sesión

    Tiempo cada hora Mostar

    Hoy, 5 Abril, Domingo

    Tiempo Temperatura Precipitaciones Viento Presión Humedad
    00:00 +10°C° 0 mm 4 mps 756 mmHg 70%
    01:00 +10°C° 0 mm 4 mps 756 mmHg 70%
    02:00 +10°C° 0 mm 4 mps 756 mmHg 70%
    03:00 +10°C° 0 mm 4 mps 756 mmHg 70%
    04:00 +9°C° 0 mm 5 mps 755 mmHg 70%
    05:00 +9°C° 0 mm 5 mps 756 mmHg 69%
    06:00 +10°C° 0 mm 5 mps 756 mmHg 68%
    07:00 +10°C° 0 mm 5 mps 756 mmHg 64%
    08:00 +13°C° 0 mm 6 mps 756 mmHg 57%
    09:00 +14°C° 0 mm 7 mps 757 mmHg 51%
    10:00 +15°C° 0 mm 8 mps 757 mmHg 45%
    11:00 +16°C° 0 mm 8 mps 757 mmHg 43%
    12:00 +17°C° 0 mm 8 mps 757 mmHg 41%
    13:00 +18°C° 0 mm 8 mps 757 mmHg 40%
    14:00 +17°C° 0 mm 7 mps 756 mmHg 41%
    15:00 +17°C° 0 mm 6 mps 756 mmHg 43%
    16:00 +17°C° 0 mm 6 mps 756 mmHg 44%
    17:00 +15°C° 0 mm 5 mps 757 mmHg 48%
    18:00 +14°C° 0 mm 5 mps 758 mmHg 52%
    19:00 +12°C° 0 mm 5 mps 758 mmHg 56%
    20:00 +11°C° 0 mm 4 mps 759 mmHg 58%
    21:00 +11°C° 0 mm 4 mps 759 mmHg 61%
    22:00 +10°C° 0 mm 4 mps 759 mmHg 64%
    23:00 +10°C° 0 mm 4 mps 760 mmHg 65%

    Mañana, 6 Abril, Lunes

    Tiempo Temperatura Precipitaciones Viento Presión Humedad
    00:00 +9°C° 0 mm 3 mps 760 mmHg 67%
    01:00 +9°C° 0 mm 3 mps 760 mmHg 69%
    02:00 +8°C° 0 mm 3 mps 760 mmHg 69%
    03:00 +8°C° 0 mm 3 mps 760 mmHg 70%
    04:00 +7°C° 0 mm 3 mps 761 mmHg 70%
    05:00 +8°C° 0 mm 3 mps 761 mmHg 68%
    06:00 +9°C° 0 mm 2 mps 761 mmHg 66%
    07:00 +10°C° 0 mm 2 mps 761 mmHg 64%
    08:00 +13°C° 0 mm 2 mps 761 mmHg 56%
    09:00 +15°C° 0 mm 2 mps 762 mmHg 49%
    10:00 +18°C° 0 mm 1 mps 762 mmHg 41%
    11:00 +19°C° 0 mm 1 mps 762 mmHg 39%
    12:00 +20°C° 0 mm 1 mps 761 mmHg 36%
    13:00 +21°C° 0 mm 1 mps 761 mmHg 34%
    14:00 +20°C° 0 mm 2 mps 761 mmHg 37%
    15:00 +19°C° 0 mm 2 mps 761 mmHg 40%
    16:00 +19°C° 0 mm 2 mps 761 mmHg 43%
    17:00 +17°C° 0 mm 2 mps 761 mmHg 51%
    18:00 +15°C° 0 mm 2 mps 762 mmHg 58%
    19:00 +13°C° 0 mm 1 mps 762 mmHg 66%
    20:00 +12°C° 0 mm 1 mps 762 mmHg 66%
    21:00 +12°C° 0 mm 1 mps 763 mmHg 65%
    22:00 +11°C° 0 mm 1 mps 763 mmHg 65%
    23:00 +10°C° 0 mm 2 mps 763 mmHg 65%

    Pasado mañana, 7 Abril, Martes

    Tiempo Temperatura Precipitaciones Viento Presión Humedad
    00:00 +9°C° 0 mm 2 mps 763 mmHg 65%
    01:00 +9°C° 0 mm 2 mps 763 mmHg 64%
    02:00 +8°C° 0 mm 2 mps 763 mmHg 65%
    03:00 +8°C° 0 mm 2 mps 763 mmHg 65%
    04:00 +7°C° 0 mm 2 mps 764 mmHg 66%
    05:00 +8°C° 0 mm 2 mps 764 mmHg 64%
    06:00 +9°C° 0 mm 2 mps 764 mmHg 62%
    07:00 +9°C° 0 mm 2 mps 764 mmHg 60%
    08:00 +12°C° 0 mm 2 mps 764 mmHg 52%
    09:00 +15°C° 0 mm 2 mps 764 mmHg 44%
    10:00 +17°C° 0 mm 2 mps 764 mmHg 36%
    11:00 +18°C° 0 mm 2 mps 764 mmHg 34%
    12:00 +21°C° 0 mm 1 mps 763 mmHg 32%
    13:00 +22°C° 0 mm 1 mps 763 mmHg 29%
    14:00 +21°C° 0 mm 2 mps 763 mmHg 30%
    15:00 +21°C° 0 mm 2 mps 763 mmHg 31%
    16:00 +20°C° 0 mm 2 mps 763 mmHg 32%
    17:00 +18°C° 0 mm 2 mps 763 mmHg 38%
    18:00 +16°C° 0 mm 2 mps 763 mmHg 44%
    19:00 +14°C° 0 mm 2 mps 763 mmHg 49%
    20:00 +13°C° 0 mm 2 mps 763 mmHg 50%
    21:00 +12°C° 0 mm 2 mps 764 mmHg 50%
    22:00 +10°C° 0 mm 2 mps 764 mmHg 51%
    23:00 +10°C° 0 mm 2 mps 764 mmHg 50%

    8 Abril, Miércoles

    Tiempo Temperatura Precipitaciones Viento Presión Humedad
    00:00 +9°C° 0 mm 2 mps 764 mmHg 50%
    01:00 +8°C° 0 mm 2 mps 764 mmHg 50%
    02:00 +8°C° 0 mm 2 mps 764 mmHg 50%
    03:00 +7°C° 0 mm 2 mps 764 mmHg 50%
    04:00 +7°C° 0 mm 2 mps 763 mmHg 51%
    05:00 +8°C° 0 mm 2 mps 763 mmHg 51%
    06:00 +8°C° 0 mm 2 mps 763 mmHg 51%
    07:00 +9°C° 0 mm 2 mps 763 mmHg 51%
    08:00 +12°C° 0 mm 2 mps 763 mmHg 45%
    09:00 +15°C° 0 mm 1 mps 762 mmHg 39%
    10:00 +18°C° 0 mm 1 mps 762 mmHg 34%
    11:00 +19°C° 0 mm 1 mps 761 mmHg 32%
    12:00 +20°C° 0 mm 1 mps 761 mmHg 31%
    13:00 +20°C° 0 mm 2 mps 761 mmHg 29%
    14:00 +19°C° 0 mm 2 mps 760 mmHg 32%
    15:00 +19°C° 0 mm 2 mps 760 mmHg 35%
    16:00 +18°C° 0 mm 2 mps 760 mmHg 38%
    17:00 +16°C° 0 mm 2 mps 760 mmHg 44%
    18:00 +14°C° 0 mm 1 mps 760 mmHg 51%
    19:00 +12°C° 0 mm 1 mps 760 mmHg 57%
    20:00 +12°C° 0 mm 1 mps 760 mmHg 58%
    21:00 +11°C° 0 mm 1 mps 761 mmHg 58%
    22:00 +11°C° 0 mm 1 mps 761 mmHg 58%
    23:00 +11°C° 0 mm 1 mps 761 mmHg 59%

    9 Abril, Jueves

    Tiempo Temperatura Precipitaciones Viento Presión Humedad
    00:00 +10°C° 0 mm 1 mps 760 mmHg 60%
    01:00 +10°C° 0 mm 1 mps 760 mmHg 60%
    02:00 +10°C° 0 mm 1 mps 760 mmHg 60%
    03:00 +9°C° 0 mm 1 mps 760 mmHg 61%
    04:00 +9°C° 0 mm 1 mps 760 mmHg 61%
    05:00 +10°C° 0 mm 1 mps 760 mmHg 59%
    06:00 +11°C° 0 mm 1 mps 760 mmHg 58%
    07:00 +12°C° 0 mm 1 mps 760 mmHg 56%
    08:00 +14°C° 0 mm 1 mps 759 mmHg 51%
    09:00 +16°C° 0 mm 1 mps 759 mmHg 45%
    10:00 +20°C° 0 mm 1 mps 759 mmHg 39%
    11:00 +20°C° 0 mm 1 mps 759 mmHg 38%
    12:00 +21°C° 0 mm 1 mps 758 mmHg 38%
    13:00 +20°C° 0 mm 2 mps 758 mmHg 37%
    14:00 +20°C° 0 mm 2 mps 758 mmHg 41%
    15:00 +19°C° 0 mm 2 mps 757 mmHg 44%
    16:00 +19°C° 0 mm 2 mps 757 mmHg 48%
    17:00 +17°C° 0 mm 2 mps 757 mmHg 55%
    18:00 +15°C° 0 mm 2 mps 757 mmHg 63%
    19:00 +13°C° 0 mm 1 mps 757 mmHg 70%
    20:00 +13°C° 0 mm 1 mps 758 mmHg 70%
    21:00 +13°C° 0 mm 1 mps 758 mmHg 70%
    22:00 +12°C° 0 mm 1 mps 758 mmHg 69%
    23:00 +12°C° 0 mm 1 mps 758 mmHg 69%

    10 Abril, Viernes

    Tiempo Temperatura Precipitaciones Viento Presión Humedad
    00:00 +12°C° 0 mm 1 mps 758 mmHg 68%
    01:00 +12°C° 0 mm 1 mps 758 mmHg 67%
    02:00 +11°C° 0 mm 1 mps 758 mmHg 67%
    03:00 +10°C° 0 mm 2 mps 758 mmHg 66%
    04:00 +10°C° 0 mm 2 mps 758 mmHg 66%
    05:00 +12°C° 0 mm 2 mps 758 mmHg 65%
    06:00 +13°C° 0 mm 2 mps 758 mmHg 63%
    07:00 +13°C° 0 mm 2 mps 759 mmHg 62%
    08:00 +16°C° 0 mm 2 mps 758 mmHg 55%
    09:00 +18°C° 0 mm 2 mps 758 mmHg 48%
    10:00 +20°C° 0 mm 2 mps 758 mmHg 41%
    11:00 +21°C° 0 mm 2 mps 758 mmHg 38%
    12:00 +23°C° 0 mm 2 mps 758 mmHg 35%
    13:00 +22°C° 0 mm 3 mps 758 mmHg 33%
    14:00 +23°C° 0 mm 2 mps 757 mmHg 35%
    15:00 +23°C° 0 mm 2 mps 757 mmHg 37%
    16:00 +23°C° 0 mm 2 mps 757 mmHg 39%
    17:00 +20°C° 0 mm 2 mps 757 mmHg 46%
    18:00 +18°C° 0 mm 2 mps 757 mmHg 52%
    19:00 +16°C° 0 mm 2 mps 757 mmHg 59%
    20:00 +15°C° 0 mm 2 mps 758 mmHg 61%
    21:00 +15°C° 0 mm 2 mps 758 mmHg 63%
    22:00 +14°C° 0 mm 2 mps 758 mmHg 65%
    23:00 +14°C° 0 mm 2 mps 758 mmHg 67%
    Mostrar más